Total_Precipitation_Accumulation
1.10 1.28 1.18 0.85 0.73 0.66 0.57 0.57 0.56 0.46 0.42 0.57 0.53 0.43 0.33 0.32 0.30 0.34 0.45 0.48 0.56 0.55 0.59 0.74 0.90 1.07 1.24 1.38 1.46 1.54 1.73 1.82 2.06 2.24 2.19 2.16 2.12 2.10 2.05 2.04 2.04 1.97 1.98 1.97
1.27 1.04 0.62 0.50 0.54 0.62 0.68 0.72 0.63 0.53 0.47 0.63 0.61 0.49 0.36 0.36 0.35 0.36 0.44 0.48 0.53 0.56 0.63 0.71 0.87 1.01 1.13 1.25 1.32 1.40 1.61 1.79 1.96 2.12 2.10 2.02 2.02 2.00 1.99 1.96 2.03 2.13 2.15 2.13
1.06 0.67 0.42 0.62 0.77 0.78 0.71 0.66 0.59 0.58 0.58 0.65 0.70 0.65 0.43 0.37 0.33 0.36 0.42 0.50 0.56 0.53 0.58 0.64 0.75 0.90 1.02 1.14 1.20 1.32 1.56 1.75 1.98 2.16 2.31 2.27 2.28 2.27 2.20 2.07 1.97 1.99 2.04 2.01
0.84 0.51 0.50 0.72 0.82 0.78 0.72 0.46 0.49 0.60 0.87 0.99 0.83 0.96 0.53 0.39 0.36 0.38 0.41 0.44 0.52 0.53 0.56 0.63 0.71 0.82 0.92 1.03 1.10 1.23 1.55 1.79 1.97 2.14 2.25 2.32 2.28 2.21 2.10 1.99 1.93 1.87 1.84 1.85
0.98 0.60 0.60 0.72 0.66 0.67 0.63 0.44 0.51 0.71 0.98 1.09 0.82 0.96 0.60 0.40 0.45 0.44 0.43 0.43 0.44 0.47 0.52 0.61 0.70 0.79 0.91 1.02 1.05 1.16 1.38 1.65 1.88 2.08 2.16 2.24 2.22 2.13 2.09 2.11 2.09 2.07 1.98 1.87
0.72 0.52 0.64 0.64 0.51 0.59 0.70 0.80 0.90 1.04 1.54 1.74 0.72 0.70 0.59 0.49 0.56 0.52 0.46 0.43 0.40 0.43 0.49 0.60 0.70 0.75 0.88 1.10 1.13 1.17 1.28 1.47 1.73 1.93 2.01 2.04 2.08 2.05 2.04 2.09 2.08 2.08 1.99 1.86
0.95 0.65 0.58 0.58 0.77 0.93 1.15 1.70 2.48 2.62 2.59 1.56 0.43 0.49 0.60 0.50 0.47 0.52 0.51 0.43 0.39 0.43 0.50 0.55 0.63 0.75 0.83 1.01 1.12 1.19 1.26 1.31 1.51 1.75 1.87 1.84 1.91 1.89 1.88 1.93 1.92 1.90 1.88 1.79
1.06 0.85 0.61 0.60 0.86 1.20 1.27 1.56 1.99 1.88 1.31 0.67 0.34 0.42 0.50 0.43 0.39 0.40 0.44 0.42 0.39 0.42 0.48 0.52 0.52 0.69 0.84 0.92 1.01 1.12 1.21 1.26 1.37 1.50 1.66 1.72 1.84 1.84 1.79 1.84 1.85 1.80 1.73 1.65
1.07 0.74 0.42 0.46 0.53 0.74 1.11 1.25 1.11 1.40 0.95 0.66 0.49 0.35 0.33 0.29 0.31 0.31 0.38 0.42 0.45 0.47 0.50 0.53 0.54 0.65 0.79 0.86 0.93 1.06 1.17 1.29 1.32 1.34 1.49 1.59 1.67 1.74 1.70 1.69 1.71 1.70 1.66 1.65
1.18 1.03 0.51 0.47 0.63 0.76 0.89 1.01 1.33 1.88 1.56 0.88 0.48 0.33 0.42 0.38 0.37 0.33 0.36 0.43 0.46 0.50 0.49 0.53 0.59 0.65 0.76 0.84 0.90 1.00 1.07 1.25 1.41 1.38 1.41 1.54 1.58 1.64 1.68 1.63 1.58 1.50 1.48 1.56
1.14 1.35 0.86 0.70 0.93 0.93 0.90 1.19 1.51 1.68 1.39 1.06 0.65 0.50 0.49 0.44 0.42 0.43 0.42 0.48 0.53 0.55 0.54 0.55 0.63 0.70 0.74 0.81 0.88 1.03 1.10 1.19 1.41 1.50 1.46 1.48 1.57 1.61 1.67 1.66 1.55 1.42 1.38 1.42
1.08 1.53 1.19 0.71 0.58 0.57 0.74 0.96 1.20 1.62 1.30 0.86 0.75 0.53 0.38 0.35 0.36 0.38 0.42 0.47 0.55 0.58 0.63 0.62 0.69 0.73 0.74 0.80 0.86 0.98 1.05 1.13 1.31 1.48 1.57 1.54 1.56 1.67 1.70 1.64 1.57 1.51 1.46 1.43
1.74 2.19 1.87 1.35 1.03 0.88 1.01 0.90 0.94 1.12 1.19 0.91 0.78 0.49 0.28 0.21 0.22 0.27 0.36 0.47 0.54 0.55 0.63 0.68 0.70 0.70 0.74 0.77 0.84 0.97 1.01 1.01 1.11 1.30 1.48 1.60 1.64 1.69 1.74 1.68 1.59 1.59 1.61 1.58
2.30 2.46 1.65 1.36 1.08 0.98 0.97 0.77 0.78 1.19 1.46 0.84 0.48 0.41 0.27 0.21 0.23 0.28 0.34 0.42 0.50 0.54 0.60 0.60 0.62 0.66 0.73 0.70 0.76 0.90 0.98 0.97 0.97 1.11 1.31 1.44 1.57 1.69 1.73 1.73 1.70 1.65 1.63 1.63
2.24 2.19 0.94 0.52 0.43 0.55 0.61 0.55 0.61 0.86 0.83 0.75 0.42 0.35 0.37 0.39 0.40 0.41 0.44 0.44 0.45 0.51 0.57 0.59 0.60 0.66 0.69 0.65 0.69 0.80 0.92 0.95 0.95 1.00 1.16 1.35 1.46 1.64 1.72 1.72 1.71 1.74 1.75 1.66
1.99 1.94 0.98 0.58 0.32 0.43 0.51 0.43 0.44 0.50 0.46 0.45 0.32 0.31 0.28 0.34 0.36 0.38 0.43 0.47 0.50 0.55 0.59 0.59 0.58 0.60 0.64 0.65 0.69 0.75 0.83 0.89 0.95 1.01 1.05 1.24 1.46 1.60 1.68 1.69 1.73 1.74 1.76 1.72
1.82 1.82 1.58 1.00 0.46 0.78 0.92 0.57 0.51 0.51 0.47 0.48 0.52 0.45 0.31 0.30 0.35 0.45 0.50 0.52 0.55 0.60 0.64 0.61 0.59 0.59 0.64 0.66 0.69 0.75 0.80 0.84 0.89 0.90 0.93 1.07 1.27 1.45 1.58 1.64 1.71 1.84 1.82 1.76
1.44 1.62 2.05 1.54 1.15 1.52 0.85 0.45 0.44 0.52 0.56 0.54 0.52 0.45 0.41 0.41 0.42 0.46 0.56 0.62 0.60 0.62 0.64 0.62 0.62 0.62 0.65 0.66 0.67 0.74 0.76 0.76 0.80 0.81 0.80 0.88 1.03 1.21 1.40 1.57 1.64 1.73 1.84 1.82
0.87 1.54 2.34 2.10 1.65 0.98 0.48 0.40 0.56 0.64 0.65 0.57 0.52 0.43 0.39 0.36 0.36 0.41 0.51 0.66 0.73 0.73 0.68 0.63 0.61 0.60 0.60 0.64 0.69 0.69 0.72 0.75 0.76 0.77 0.79 0.81 0.89 1.02 1.19 1.37 1.50 1.61 1.72 1.76
0.90 1.51 2.50 2.28 1.79 0.96 0.54 0.36 0.40 0.56 0.75 0.52 0.50 0.51 0.46 0.45 0.52 0.52 0.54 0.62 0.71 0.68 0.65 0.64 0.59 0.55 0.57 0.63 0.67 0.67 0.71 0.74 0.78 0.79 0.81 0.82 0.85 0.91 1.03 1.19 1.34 1.50 1.61 1.67
1.27 1.95 2.30 1.80 1.55 0.80 0.47 0.35 0.35 0.77 0.87 0.51 0.52 0.58 0.58 0.63 0.66 0.58 0.52 0.54 0.59 0.60 0.60 0.59 0.55 0.54 0.60 0.63 0.65 0.70 0.71 0.75 0.77 0.77 0.78 0.79 0.80 0.83 0.92 1.08 1.22 1.38 1.49 1.58
0.92 1.28 1.28 1.21 1.49 0.92 0.48 0.43 0.70 0.87 0.57 0.51 0.51 0.54 0.58 0.56 0.52 0.51 0.50 0.49 0.48 0.51 0.52 0.54 0.55 0.57 0.59 0.59 0.64 0.72 0.73 0.72 0.70 0.70 0.71 0.73 0.74 0.77 0.85 0.99 1.12 1.24 1.39 1.51
0.70 0.92 0.98 0.92 0.87 0.64 0.57 0.66 0.70 0.64 0.59 0.52 0.52 0.50 0.53 0.56 0.54 0.50 0.48 0.46 0.46 0.48 0.48 0.49 0.54 0.56 0.56 0.57 0.61 0.73 0.74 0.69 0.65 0.65 0.68 0.70 0.72 0.75 0.78 0.86 1.02 1.22 1.30 1.41
0.52 0.50 0.67 0.68 0.53 0.44 0.43 0.45 0.49 0.53 0.55 0.51 0.52 0.54 0.54 0.56 0.54 0.48 0.43 0.42 0.43 0.45 0.47 0.47 0.49 0.52 0.57 0.61 0.63 0.67 0.70 0.69 0.62 0.64 0.68 0.67 0.71 0.77 0.75 0.79 0.90 1.10 1.26 1.36
0.50 0.48 0.54 0.57 0.44 0.37 0.33 0.34 0.39 0.41 0.40 0.40 0.43 0.49 0.53 0.53 0.48 0.44 0.41 0.39 0.41 0.45 0.47 0.47 0.48 0.53 0.62 0.68 0.64 0.61 0.63 0.65 0.63 0.63 0.68 0.68 0.68 0.73 0.77 0.83 0.91 1.02 1.16 1.41
0.44 0.51 0.61 0.59 0.45 0.52 0.42 0.33 0.34 0.36 0.36 0.38 0.40 0.42 0.43 0.44 0.43 0.37 0.37 0.38 0.40 0.42 0.43 0.44 0.44 0.48 0.57 0.63 0.63 0.59 0.60 0.63 0.65 0.66 0.65 0.68 0.71 0.72 0.73 0.82 0.95 1.08 1.14 1.25